Wetbulb
38.46 39.92 40.31 40.61 41.51 41.86 41.61 41.94 42.91 44.71 45.34 45.37 45.74 46.35 46.77 48.56 50.96 51.82 51.38 51.08 49.72 49.55 49.41 49.16 48.24 49.24 49.33 49.67 49.25 48.15 46.17 45.17 39.10 39.30 41.61 42.98 42.80 42.07 42.02 42.81 42.62 42.31 42.29
38.29 39.78 40.38 40.76 41.18 41.00 41.29 42.31 44.05 44.72 45.53 45.57 45.99 46.51 47.15 50.09 51.77 51.38 50.71 50.58 49.84 48.97 48.82 48.89 49.02 49.54 49.36 49.22 48.56 46.92 45.02 44.89 42.13 38.72 39.97 40.38 40.65 40.95 40.70 39.92 40.00 40.95 41.24
38.40 39.53 40.01 40.12 40.35 40.61 41.33 42.45 44.46 44.24 44.66 45.19 46.22 46.03 48.22 49.45 51.95 51.99 51.10 49.90 50.13 49.69 49.39 49.43 48.87 49.34 48.64 48.50 47.60 46.00 44.67 43.45 42.83 40.73 39.17 40.00 39.57 39.35 37.33 37.19 37.26 37.21 37.51
37.80 38.96 39.09 39.47 40.25 40.85 41.70 43.99 44.54 44.41 44.28 46.10 45.70 46.30 48.30 49.71 51.41 51.68 50.05 49.78 50.26 50.24 49.88 50.18 50.06 49.70 48.96 47.81 46.41 44.98 43.73 42.35 41.84 40.60 39.38 38.54 37.90 37.38 36.53 33.61 32.83 34.61 33.62
37.59 38.38 38.64 39.84 40.68 40.96 42.25 43.11 43.82 44.38 46.63 46.97 45.28 46.69 48.15 49.40 51.06 51.54 51.02 50.27 50.34 50.02 49.71 49.92 49.79 45.25 44.02 45.70 46.42 44.56 43.69 41.89 40.80 39.55 38.04 36.56 34.73 34.62 33.82 33.22 32.22 32.40 32.21
37.10 37.41 38.93 39.93 40.35 40.32 42.02 42.63 43.87 45.54 45.92 46.31 45.84 47.02 47.44 47.80 45.12 46.22 49.26 50.09 49.73 49.15 47.85 45.61 44.54 39.66 41.90 41.69 41.85 42.66 43.32 42.03 40.57 39.79 38.94 37.01 36.11 35.08 33.87 33.06 32.06 30.77 28.27
36.88 37.07 38.57 39.25 39.45 40.10 41.32 42.34 44.56 44.62 45.41 45.49 45.69 45.87 46.23 47.06 43.50 43.90 44.27 49.38 48.25 47.20 45.88 44.22 41.83 39.61 40.18 41.37 39.96 39.81 38.35 41.45 42.49 42.49 39.74 39.26 36.35 36.31 34.40 32.70 32.96 32.64 31.08
36.80 37.35 38.28 38.22 37.93 39.01 39.64 41.87 43.91 44.19 44.06 43.93 44.13 44.58 44.92 44.45 42.35 42.93 42.72 47.42 45.88 45.29 44.55 43.90 42.55 41.07 41.34 40.89 39.42 37.43 36.69 37.83 40.37 41.37 41.86 39.61 39.86 38.54 37.20 36.42 34.65 31.57 31.07
35.86 36.97 37.87 38.37 37.29 37.99 39.87 42.16 43.10 42.82 42.44 42.63 42.08 43.17 43.53 43.06 40.99 42.38 45.07 45.20 43.33 42.46 42.54 42.60 42.28 40.92 38.23 39.07 37.68 34.09 33.43 33.86 38.31 39.50 39.60 39.90 40.35 39.79 37.02 34.70 31.92 31.03 30.05
34.94 35.95 37.33 37.96 38.23 38.45 38.35 39.18 38.51 39.55 38.05 35.73 36.84 38.97 37.50 41.65 40.17 41.82 44.26 42.52 40.38 36.66 37.44 37.62 35.79 39.97 37.99 38.88 36.73 34.93 32.92 31.62 32.55 33.18 33.66 35.14 36.88 36.64 37.11 34.87 34.16 32.43 29.61
33.99 34.46 34.94 36.48 37.29 39.34 38.32 37.77 37.68 36.43 35.69 35.97 35.62 35.45 36.62 38.04 41.16 41.08 42.10 41.78 38.12 35.21 35.03 34.35 34.28 38.29 38.31 38.14 37.70 35.39 33.93 32.26 33.47 31.69 30.66 30.27 30.32 30.31 30.29 31.26 30.87 30.78 23.42
32.58 33.04 33.22 33.69 35.14 37.07 36.95 36.37 35.48 35.54 34.61 33.34 33.54 32.42 32.58 35.56 36.62 40.98 41.41 40.95 39.99 37.13 35.58 34.00 35.31 38.14 38.21 38.11 35.69 36.15 35.20 31.53 31.14 30.06 29.07 28.07 27.67 26.69 25.72 25.65 24.91 23.07 23.28
30.76 29.65 31.50 32.60 32.69 33.65 35.19 34.23 33.49 34.28 33.34 32.80 32.93 33.06 32.28 31.61 33.67 39.33 39.95 39.71 38.68 34.76 34.57 35.89 37.49 38.06 38.10 37.11 36.70 35.55 31.98 30.51 27.80 26.63 25.96 25.01 25.23 24.62 22.93 22.62 22.14 19.73 19.08
31.93 31.08 31.48 32.31 32.80 32.64 32.92 34.10 34.77 34.12 34.45 33.22 32.89 33.07 31.61 32.52 32.14 32.98 34.19 35.50 34.62 34.62 35.71 36.01 36.65 35.60 35.42 34.63 33.65 32.74 30.88 29.04 27.28 24.58 24.71 24.69 25.45 24.51 21.33 17.97 22.06 22.54 20.97
31.65 31.50 31.65 31.90 32.67 32.67 32.33 33.62 34.73 34.98 35.91 34.94 35.44 34.97 33.76 33.36 33.90 35.28 34.93 33.84 34.80 34.93 33.73 33.48 32.61 32.36 31.68 31.30 31.15 29.80 26.58 25.63 24.26 23.37 24.15 24.38 24.65 21.30 14.53 11.63 15.37 3.71 8.15
31.12 31.44 31.93 31.92 32.12 32.92 33.04 32.88 36.15 36.81 37.24 38.41 38.15 36.48 33.59 36.17 36.84 36.49 36.43 36.54 36.35 35.46 33.21 32.77 32.58 32.22 31.62 31.07 30.88 29.10 24.83 23.17 23.67 24.27 25.48 26.18 25.31 20.67 18.40 9.01 6.46 11.23 13.10
30.60 31.41 31.85 32.14 32.17 32.57 32.43 33.07 33.57 33.99 37.06 37.67 38.16 38.08 37.37 36.34 36.71 36.62 36.70 36.77 36.09 35.82 33.81 33.55 33.28 32.88 32.70 32.06 31.71 30.48 26.97 25.11 23.65 25.23 27.40 26.49 25.73 21.36 18.43 12.94 12.19 12.50 3.16
31.03 31.76 31.65 32.37 32.97 33.09 33.07 33.40 33.58 33.54 33.42 33.31 35.54 36.65 37.17 37.11 36.71 36.70 36.90 35.84 33.10 34.73 33.43 33.81 33.64 33.38 32.44 31.77 31.07 29.79 27.54 25.05 25.34 26.62 27.14 22.67 22.08 21.40 17.96 13.62 12.82 11.97 11.55
30.43 31.11 32.18 32.29 32.45 32.87 33.02 33.23 33.51 33.35 33.50 33.12 32.26 34.86 33.78 36.80 36.67 36.72 36.53 33.58 32.79 33.08 33.70 33.90 34.19 33.33 32.67 32.01 31.02 29.62 28.17 26.94 25.90 28.04 27.26 22.61 22.20 21.94 19.07 15.53 13.79 12.85 11.01
25.93 30.54 31.52 32.14 32.50 32.62 32.80 32.91 33.09 33.32 33.26 33.28 33.03 33.40 32.40 32.83 33.10 33.12 33.64 33.73 33.48 33.95 34.20 34.28 34.00 33.37 32.08 30.36 28.59 27.97 26.66 26.38 26.85 28.51 25.15 22.41 22.16 22.70 19.54 16.93 15.57 14.19 9.81
28.20 29.91 30.92 31.59 31.83 32.58 32.86 32.79 33.16 33.36 33.29 33.27 33.52 33.57 34.28 33.59 33.09 32.94 32.81 33.05 33.59 33.86 33.85 34.12 33.61 33.16 32.10 30.43 28.70 27.05 26.70 27.22 28.82 27.58 24.18 22.33 21.84 20.20 20.68 19.91 17.78 17.27 11.97
25.58 29.12 29.85 30.36 31.59 32.01 32.22 33.13 32.93 33.08 33.59 33.68 33.67 33.27 35.80 33.58 33.50 33.26 33.26 33.34 33.77 34.04 34.28 34.32 33.61 33.44 33.08 31.59 29.43 27.86 26.38 27.09 27.19 24.19 23.44 22.07 21.38 20.10 20.23 19.56 17.60 14.89 10.86
26.50 27.59 28.38 29.94 30.98 31.64 32.11 32.74 32.93 33.35 33.29 33.66 33.93 33.01 33.17 33.46 33.65 33.66 33.73 33.96 33.99 34.01 33.87 33.95 33.66 33.02 33.03 32.95 31.89 30.67 28.74 26.84 25.77 25.01 23.71 22.07 20.21 19.64 19.86 18.67 17.03 13.84 11.37
25.52 26.62 27.16 28.20 29.59 30.36 30.90 31.36 32.59 32.92 33.20 33.35 33.69 33.73 33.24 33.64 33.61 33.82 34.03 34.28 34.14 34.24 33.99 34.04 33.75 33.52 32.73 31.48 30.71 31.00 30.06 29.01 27.43 25.57 24.44 22.30 20.62 19.61 19.16 18.55 17.21 15.41 13.22
20.59 26.02 27.11 27.94 28.42 28.83 29.75 30.80 31.38 32.28 32.85 33.25 33.49 33.87 34.10 33.80 33.74 34.06 34.33 34.27 34.29 33.83 33.56 33.76 33.57 33.23 32.26 31.43 30.59 30.19 29.97 27.24 26.21 25.30 24.62 22.79 20.31 19.19 18.85 17.89 17.10 14.84 13.52
14.48 18.58 22.89 26.79 28.33 29.17 29.52 29.75 30.46 31.45 31.82 32.68 33.38 34.10 34.16 33.99 34.15 34.35 34.38 34.19 33.96 33.92 33.67 33.19 33.27 32.51 31.83 30.99 30.24 29.51 27.04 25.51 24.00 23.93 23.70 22.02 19.42 18.78 18.21 16.84 15.74 14.96 12.92
MSLP
1016.72 1016.84 1017.07 1017.48 1017.57 1017.68 1017.73 1017.74 1017.85 1017.81 1017.88 1017.88 1017.67 1017.29 1017.25 1017.08 1017.00 1016.95 1017.11 1017.30 1017.44 1017.82 1018.12 1018.47 1018.96 1019.26 1019.78 1020.16 1020.53 1020.80 1021.36 1022.12 1024.16 1026.29 1026.78 1027.14 1027.37 1027.76 1028.39 1028.63 1029.11 1029.43 1029.67
1016.59 1016.73 1016.88 1017.22 1017.47 1017.60 1017.71 1017.59 1017.67 1017.79 1017.77 1017.77 1017.61 1017.35 1017.20 1017.01 1017.01 1017.14 1016.96 1017.29 1017.62 1017.95 1018.29 1018.71 1019.32 1019.68 1020.09 1020.53 1020.92 1021.35 1021.86 1022.57 1023.60 1025.73 1026.98 1027.48 1028.00 1028.55 1028.94 1029.30 1029.91 1030.07 1030.19
1016.48 1016.66 1016.92 1016.99 1017.33 1017.56 1017.58 1017.48 1017.56 1017.76 1017.70 1017.64 1017.55 1017.36 1017.10 1017.03 1017.00 1017.25 1017.35 1017.38 1017.69 1018.16 1018.47 1018.83 1019.40 1019.90 1020.49 1020.91 1021.26 1021.79 1022.45 1023.11 1023.80 1025.14 1026.63 1027.54 1028.41 1029.08 1029.71 1030.30 1030.60 1030.88 1031.23
1016.52 1016.67 1016.97 1017.04 1017.13 1017.26 1017.32 1017.46 1017.44 1017.63 1017.68 1017.52 1017.60 1017.33 1017.08 1016.97 1017.04 1017.29 1017.61 1017.84 1017.94 1018.31 1018.69 1018.96 1019.52 1019.98 1020.36 1020.83 1021.41 1022.01 1022.81 1023.54 1024.41 1025.40 1026.51 1027.54 1028.40 1029.39 1029.73 1030.40 1031.23 1031.78 1032.15
1016.23 1016.57 1016.71 1017.00 1017.07 1017.11 1017.12 1017.32 1017.45 1017.36 1017.56 1017.55 1017.53 1017.37 1017.26 1016.84 1017.05 1017.35 1017.62 1018.01 1017.98 1018.49 1018.95 1019.32 1019.78 1020.24 1020.61 1021.00 1021.22 1022.17 1022.75 1023.53 1024.53 1025.48 1026.46 1027.50 1028.39 1029.14 1029.73 1030.57 1031.28 1032.04 1032.84
1015.70 1016.17 1016.42 1016.85 1016.84 1017.13 1017.22 1017.20 1017.35 1017.44 1017.37 1017.58 1017.39 1017.43 1017.30 1016.91 1017.01 1017.36 1017.60 1018.08 1018.32 1018.72 1019.20 1019.76 1020.06 1020.49 1021.15 1021.38 1021.63 1022.07 1022.45 1023.13 1024.11 1024.86 1025.81 1026.73 1027.92 1028.74 1029.61 1030.29 1030.85 1031.82 1032.94
1015.69 1015.96 1016.24 1016.53 1016.76 1016.92 1017.34 1017.22 1017.14 1017.34 1017.39 1017.41 1017.38 1017.44 1017.44 1017.03 1016.97 1017.41 1017.73 1018.12 1018.55 1018.93 1019.42 1019.95 1020.55 1021.02 1021.49 1021.97 1022.36 1022.69 1023.18 1023.30 1023.46 1023.86 1024.85 1025.93 1027.09 1027.86 1028.88 1029.95 1030.59 1031.14 1032.01
1015.61 1016.04 1016.23 1016.49 1016.73 1016.73 1017.27 1017.41 1017.08 1017.21 1017.35 1017.45 1017.50 1017.40 1017.59 1017.40 1017.10 1017.53 1017.84 1018.35 1018.91 1019.38 1019.77 1020.06 1020.55 1021.22 1021.70 1022.04 1022.62 1023.32 1023.84 1023.93 1023.77 1023.87 1024.50 1025.32 1026.01 1027.10 1028.03 1028.63 1030.04 1031.27 1032.42
1015.43 1015.70 1016.08 1016.53 1016.93 1016.96 1016.90 1017.32 1017.31 1017.17 1017.38 1017.48 1017.68 1017.60 1017.60 1017.84 1017.58 1017.60 1018.14 1018.59 1019.22 1019.72 1020.18 1020.59 1020.87 1021.34 1021.78 1021.87 1022.55 1023.62 1024.38 1024.78 1024.54 1024.32 1024.70 1025.35 1026.10 1027.04 1027.90 1029.05 1030.35 1031.11 1032.38
1015.96 1015.83 1015.73 1015.99 1016.67 1017.07 1016.95 1017.18 1017.50 1017.36 1017.38 1017.65 1017.91 1017.89 1017.71 1017.97 1018.07 1017.86 1018.16 1018.93 1019.46 1019.98 1020.37 1020.73 1021.08 1021.36 1021.84 1022.03 1022.39 1023.31 1024.36 1025.20 1025.35 1025.61 1026.13 1026.58 1026.87 1027.65 1028.19 1028.63 1029.43 1030.42 1031.48
1015.86 1016.09 1016.14 1016.04 1015.68 1016.88 1016.86 1017.07 1017.30 1017.86 1017.65 1017.84 1018.03 1018.03 1018.03 1017.98 1018.23 1018.37 1018.10 1018.84 1019.58 1020.26 1020.60 1020.93 1021.17 1021.44 1021.80 1022.10 1022.40 1023.19 1023.83 1024.84 1025.48 1025.98 1026.73 1027.40 1027.90 1028.37 1028.93 1029.29 1029.71 1030.19 1030.87
1015.96 1016.34 1016.30 1016.41 1016.28 1016.36 1016.88 1017.13 1017.12 1018.07 1018.12 1018.01 1018.18 1018.32 1018.25 1018.36 1018.31 1018.56 1018.75 1018.53 1019.28 1019.86 1020.40 1020.77 1021.08 1021.46 1021.78 1022.17 1022.82 1023.36 1024.10 1025.27 1025.88 1026.55 1027.24 1027.96 1028.53 1029.17 1029.73 1029.95 1030.32 1030.80 1031.11
1016.54 1016.76 1016.81 1016.77 1016.68 1016.54 1016.97 1017.06 1017.62 1017.62 1018.24 1018.28 1018.18 1018.38 1018.38 1018.49 1018.59 1018.66 1018.78 1019.03 1019.13 1019.70 1020.08 1020.51 1021.11 1021.61 1021.97 1022.56 1023.08 1023.76 1024.69 1025.47 1026.17 1026.96 1027.73 1028.43 1028.99 1029.59 1030.24 1030.60 1031.00 1031.37 1031.71
1016.81 1017.09 1017.07 1016.73 1016.90 1016.95 1017.11 1017.00 1017.09 1017.68 1017.60 1018.16 1018.35 1018.27 1018.43 1018.41 1018.55 1018.65 1018.84 1019.04 1019.37 1019.70 1020.28 1020.93 1021.44 1021.86 1022.31 1022.83 1023.63 1024.27 1024.82 1025.60 1026.04 1026.87 1027.76 1028.60 1029.20 1029.73 1030.46 1030.77 1031.42 1031.70 1032.37
1017.25 1017.25 1017.14 1016.86 1016.92 1017.00 1017.31 1017.16 1016.89 1016.93 1017.17 1017.12 1017.48 1017.50 1017.89 1018.09 1017.96 1018.23 1018.46 1018.80 1018.92 1019.27 1020.22 1020.96 1021.59 1022.16 1022.74 1023.28 1023.90 1024.33 1025.00 1025.70 1026.19 1026.92 1027.70 1028.32 1029.08 1029.92 1030.85 1031.60 1031.96 1032.43 1033.14
1017.60 1017.33 1017.05 1017.08 1016.91 1017.15 1017.04 1016.96 1016.99 1016.89 1016.76 1016.84 1016.92 1017.01 1017.11 1017.29 1017.39 1017.75 1018.25 1018.59 1018.98 1019.25 1019.77 1020.48 1021.07 1021.54 1022.08 1022.69 1023.33 1024.06 1024.79 1025.37 1026.03 1026.56 1027.36 1027.97 1028.60 1029.64 1030.63 1031.51 1031.84 1032.45 1033.45
1017.66 1017.43 1017.19 1016.96 1017.02 1017.18 1017.00 1016.70 1016.79 1016.79 1016.53 1016.52 1016.50 1016.65 1016.67 1016.86 1017.12 1017.41 1017.81 1018.17 1018.72 1019.32 1019.41 1019.85 1020.20 1020.65 1021.26 1021.74 1022.66 1023.15 1024.00 1024.92 1025.63 1026.29 1026.88 1027.60 1028.31 1029.34 1030.41 1031.36 1032.02 1032.74 1033.97
1017.50 1017.12 1016.87 1016.87 1016.89 1016.83 1016.66 1016.48 1016.53 1016.44 1016.34 1016.28 1016.21 1016.17 1016.32 1016.55 1016.73 1017.12 1017.54 1018.04 1018.89 1018.95 1019.01 1019.22 1019.43 1019.98 1020.55 1021.16 1021.94 1022.74 1023.65 1024.64 1025.21 1025.69 1026.50 1027.44 1028.21 1028.92 1029.96 1030.83 1031.67 1032.52 1033.72
1017.48 1017.00 1016.65 1016.44 1016.30 1016.20 1016.17 1016.23 1016.23 1016.09 1016.09 1015.83 1015.80 1015.90 1016.07 1016.27 1016.55 1016.95 1017.31 1017.22 1017.57 1017.82 1018.17 1018.45 1018.59 1019.17 1019.84 1020.45 1021.27 1022.21 1022.87 1023.70 1024.41 1025.08 1025.88 1026.66 1027.46 1028.26 1029.39 1030.33 1031.16 1032.08 1033.15
1017.13 1016.73 1016.46 1016.26 1016.05 1015.94 1015.88 1015.87 1015.80 1015.70 1015.62 1015.47 1015.49 1015.47 1015.79 1016.32 1016.33 1016.59 1016.91 1016.84 1016.90 1017.08 1017.36 1017.79 1017.95 1018.19 1019.05 1019.71 1020.62 1021.42 1022.31 1023.19 1024.02 1024.60 1025.49 1026.18 1026.92 1027.62 1028.56 1029.58 1030.54 1031.55 1032.88
1016.95 1016.41 1016.12 1015.91 1015.66 1015.46 1015.31 1015.15 1015.13 1015.17 1014.98 1014.91 1014.78 1014.84 1015.06 1015.26 1015.43 1015.81 1015.92 1016.21 1016.43 1016.56 1016.76 1017.19 1017.69 1017.80 1017.94 1018.66 1019.69 1020.61 1021.50 1022.21 1022.77 1023.68 1024.69 1025.47 1026.23 1027.13 1027.96 1028.93 1030.05 1031.08 1032.32
1016.72 1016.15 1015.70 1015.38 1015.12 1014.93 1014.75 1014.62 1014.44 1014.24 1014.21 1014.17 1014.02 1014.18 1014.34 1014.47 1014.60 1014.75 1015.00 1015.23 1015.36 1015.70 1016.05 1016.39 1016.93 1017.39 1017.49 1017.37 1018.00 1019.23 1020.27 1020.95 1021.90 1022.77 1023.58 1024.48 1025.51 1026.52 1027.46 1028.41 1029.48 1030.66 1031.86
1016.37 1015.78 1015.35 1014.95 1014.63 1014.37 1014.19 1013.94 1013.71 1013.47 1013.27 1013.18 1013.31 1013.48 1013.69 1013.74 1013.83 1013.89 1013.96 1014.03 1014.24 1014.70 1015.02 1015.51 1015.95 1016.32 1016.85 1017.36 1017.79 1017.96 1018.05 1019.01 1019.83 1020.97 1022.18 1023.41 1024.54 1025.59 1026.57 1027.51 1028.44 1029.72 1030.92
1016.15 1015.57 1015.10 1014.65 1014.24 1013.91 1013.63 1013.38 1013.16 1012.95 1012.80 1012.62 1012.43 1012.57 1012.71 1012.81 1012.95 1013.05 1013.04 1013.20 1013.32 1013.56 1013.90 1014.35 1014.85 1015.27 1015.70 1016.32 1017.03 1017.83 1018.31 1018.61 1019.20 1020.00 1020.87 1022.16 1023.49 1024.73 1025.68 1026.71 1027.61 1028.42 1029.64
1016.44 1015.55 1014.80 1014.26 1013.84 1013.45 1013.07 1012.69 1012.41 1012.18 1011.94 1011.77 1011.59 1011.56 1011.64 1011.69 1011.81 1011.98 1012.16 1012.26 1012.35 1012.60 1012.81 1013.10 1013.61 1014.07 1014.70 1015.14 1015.75 1016.52 1017.34 1018.44 1018.77 1019.48 1020.41 1021.30 1022.44 1023.63 1024.68 1025.79 1026.84 1027.98 1029.00
1016.66 1015.93 1015.13 1014.25 1013.47 1012.92 1012.48 1012.08 1011.71 1011.44 1011.18 1010.96 1010.86 1010.71 1010.54 1010.58 1010.66 1010.82 1011.04 1011.20 1011.38 1011.58 1011.91 1011.97 1012.21 1012.82 1013.41 1014.16 1014.70 1015.44 1016.46 1017.27 1018.31 1018.83 1019.74 1020.72 1021.81 1022.91 1023.98 1025.00 1026.35 1027.33 1028.25
Wind_Speed
7 6 6 5 5 3 3 2 2 1 1 2 2 2 3 3 3 4 5 6 8 7 6 8 9 8 5 5 4 4 7 8 9 4 2 4 8 11 10 10 9 9 9
6 6 6 5 4 4 3 4 2 2 1 2 2 1 1 3 2 4 4 6 9 9 8 9 9 6 7 5 4 5 7 6 9 13 3 3 6 9 10 11 8 8 10
6 6 6 6 6 5 5 4 3 2 2 3 2 2 2 3 4 4 4 5 7 8 9 10 9 9 6 5 6 7 6 7 8 10 7 2 3 6 9 9 9 10 9
6 6 6 6 6 5 5 4 3 2 2 3 3 3 0 2 2 5 5 5 7 7 6 8 7 7 8 8 6 8 7 9 10 9 8 6 3 4 6 8 8 5 7
7 6 6 5 5 5 5 4 3 3 3 3 2 3 2 2 2 6 6 5 7 7 6 7 6 6 10 6 8 8 10 8 8 9 7 4 4 6 8 4 8 7 7
7 7 6 5 6 5 5 4 3 3 3 4 3 2 4 2 5 9 8 6 7 7 7 5 6 9 9 9 11 8 7 12 9 7 6 9 8 6 8 8 10 7 5
6 6 6 6 6 6 4 5 4 4 3 4 3 1 4 3 9 9 10 5 6 8 7 7 5 5 7 8 12 13 10 8 7 6 12 10 10 9 11 10 7 2 4
6 5 5 6 6 6 4 5 4 3 4 3 3 2 3 2 9 11 11 7 5 5 6 7 8 7 8 10 10 9 7 6 3 4 8 9 8 13 11 7 7 8 10
6 6 5 5 5 5 5 5 3 4 3 3 2 3 4 3 5 12 8 6 7 6 5 5 7 8 11 16 12 11 9 8 13 14 13 14 17 17 14 11 8 11 4
3 5 6 7 6 6 6 5 1 2 4 3 3 1 4 3 2 9 10 4 5 4 4 5 7 9 12 13 12 11 10 6 8 10 9 12 12 13 11 5 10 10 5
2 4 5 5 8 6 5 4 4 2 4 4 4 2 3 4 4 4 12 6 5 4 4 3 3 14 13 12 12 8 7 10 13 10 8 7 6 6 5 5 4 5 4
1 2 4 3 3 5 6 3 4 3 2 3 4 2 0 2 4 5 5 8 10 7 6 4 5 15 14 14 9 17 21 13 7 7 7 6 6 5 4 5 6 6 4
4 3 2 1 1 2 4 5 2 5 2 2 2 2 2 0 1 6 8 9 10 4 4 7 13 14 15 9 18 20 14 7 8 8 6 3 3 5 7 7 8 8 9
4 3 1 0 1 1 2 3 4 3 4 3 3 3 2 2 2 1 2 5 10 7 12 9 9 10 9 10 11 10 5 6 7 8 7 6 6 5 4 2 5 6 6
4 3 2 1 3 1 2 3 4 4 4 4 5 4 4 5 5 6 6 6 6 9 11 8 7 6 7 6 6 6 5 6 7 7 8 8 7 6 2 2 5 2 4
4 3 2 2 1 4 3 2 5 8 9 9 7 6 3 3 11 13 12 10 11 21 6 7 8 8 9 9 9 8 4 6 6 8 8 8 8 7 7 2 3 4 9
4 4 2 2 2 4 3 3 4 3 8 9 11 11 10 6 13 16 15 15 20 14 3 7 9 10 9 9 8 9 9 6 7 7 9 9 8 7 7 5 6 7 3
6 6 2 4 4 5 4 4 4 4 4 3 6 7 9 10 13 15 16 15 11 10 4 7 9 9 9 9 9 8 7 8 8 8 8 7 8 9 8 7 7 8 9
6 6 4 3 3 3 3 4 5 4 5 3 1 4 4 9 11 14 21 6 10 10 8 9 8 8 9 8 8 7 9 9 9 9 9 8 9 9 7 7 7 9 8
4 9 8 6 4 4 4 5 5 6 6 5 5 4 4 4 5 7 10 7 7 7 8 9 9 10 9 9 9 9 9 9 9 9 8 8 8 8 9 9 9 10 6
6 6 8 7 7 7 5 6 6 7 6 6 6 6 13 7 8 9 9 8 7 6 6 7 7 8 9 11 10 10 10 9 10 10 9 9 10 9 8 8 8 8 8
5 7 6 7 6 6 8 8 6 6 8 8 5 6 18 8 6 7 9 9 9 7 6 8 7 7 8 11 13 12 11 11 11 11 10 10 10 9 9 9 10 9 9
8 8 8 8 8 9 7 8 7 8 7 7 7 6 8 8 8 9 9 9 8 8 7 8 8 8 7 7 8 10 15 15 14 13 13 12 11 11 11 11 12 11 11
8 9 9 9 8 9 9 9 9 11 11 9 8 8 8 9 10 10 9 8 9 9 9 9 9 12 10 9 8 7 7 8 10 13 16 14 12 13 11 11 12 14 12
8 9 9 9 9 10 10 10 11 10 10 10 9 8 8 9 9 10 9 9 8 9 11 11 10 13 15 17 14 14 12 13 13 15 12 14 16 18 13 11 13 12 12
8 9 9 8 8 8 9 10 12 11 11 10 8 9 9 9 10 10 10 9 9 10 11 10 12 17 18 15 17 18 17 19 16 19 13 13 14 13 12 13 17 11 15
Wind_Direction
180 176 167 183 176 192 186 229 217 166 254 289 313 28 13 30 321 119 114 111 115 115 112 113 113 112 103 92 84 82 93 102 114 77 78 85 88 99 90 83 78 78 75
183 172 175 177 181 194 215 234 179 137 275 241 292 349 19 48 171 135 126 122 125 124 119 114 113 113 105 104 102 101 102 118 125 127 121 100 88 91 90 85 84 80 82
182 174 182 179 185 201 222 221 165 164 246 272 260 293 71 59 123 135 129 121 123 128 132 128 130 135 123 121 109 100 99 101 117 134 125 98 99 107 99 85 83 82 74
185 178 188 192 194 201 212 200 161 154 221 284 278 278 285 94 144 137 131 123 120 122 121 122 130 141 140 132 120 114 120 114 122 127 126 123 111 115 104 112 94 81 88
174 186 195 200 203 205 189 189 167 164 195 262 283 259 291 117 157 147 137 139 128 124 122 124 118 117 123 138 139 140 133 124 133 135 136 124 130 149 143 127 116 106 67
171 194 187 193 186 203 201 185 191 195 183 242 224 226 275 175 167 153 141 138 133 131 132 109 121 117 108 117 107 101 134 145 148 147 157 159 152 133 136 142 135 137 112
177 193 187 182 187 183 206 195 186 201 190 206 184 171 271 177 141 139 131 125 136 130 134 125 107 97 108 108 92 87 75 77 151 153 158 163 155 156 148 148 152 102 114
173 196 194 170 188 174 182 228 183 185 185 169 189 171 270 261 145 131 119 112 103 115 127 135 133 135 136 127 110 91 71 56 115 143 162 154 154 151 156 154 134 102 107
183 187 191 179 176 191 173 221 207 170 167 154 189 187 179 266 181 142 126 128 131 133 131 129 141 141 147 136 124 114 99 79 65 90 107 120 134 144 138 126 133 135 131
228 217 192 172 179 211 184 187 224 201 150 135 133 114 137 161 217 152 131 128 133 132 120 129 144 144 148 147 134 138 128 135 118 97 88 82 101 117 126 127 153 153 130
241 213 238 214 158 210 180 163 137 237 143 148 146 133 132 159 165 193 144 144 149 137 143 145 135 145 147 144 141 148 141 141 123 110 103 96 88 85 78 83 109 146 126
323 231 199 239 207 163 172 183 142 193 192 158 150 126 37 175 166 173 179 144 156 153 171 157 149 153 150 147 132 133 135 124 119 113 115 113 113 105 85 82 83 79 51
38 16 333 34 334 159 171 156 119 150 173 233 179 174 183 232 221 192 177 166 153 128 142 151 147 146 140 126 138 139 136 133 131 129 132 114 103 111 111 96 90 90 72
46 3 306 225 84 23 297 171 156 185 177 187 219 199 190 195 195 184 159 144 126 112 125 129 134 124 114 123 135 140 137 143 145 139 134 128 127 130 135 114 115 104 88
14 349 313 244 239 183 233 236 199 211 191 187 213 192 177 217 216 180 174 174 166 149 130 128 132 135 138 142 145 138 130 135 136 135 144 147 146 140 105 79 114 72 103
357 348 335 287 222 251 215 250 263 250 212 224 219 200 207 202 168 181 183 177 161 152 134 159 165 166 167 166 166 162 157 149 148 144 149 157 155 154 152 134 92 115 132
329 324 308 289 259 252 226 211 237 274 252 249 239 231 210 199 189 186 182 172 165 169 176 175 177 175 176 169 174 174 168 163 145 152 161 167 159 152 150 136 128 131 112
318 306 280 282 261 250 245 240 232 221 229 241 240 236 228 222 200 194 175 149 170 201 183 187 181 176 173 171 171 168 153 154 163 160 158 158 157 159 151 148 149 145 148
311 299 281 250 253 252 246 248 240 232 236 223 165 209 213 218 200 189 175 182 188 194 196 191 180 174 173 170 169 169 165 169 166 167 169 164 163 162 156 152 144 150 140
275 288 274 269 243 234 223 232 243 239 231 220 211 207 155 146 177 187 199 210 199 203 197 199 188 172 173 169 167 163 158 160 168 172 169 166 165 168 162 158 160 158 158
302 291 281 269 261 255 235 227 231 242 233 227 221 187 189 189 194 197 199 210 217 211 197 199 196 191 175 169 168 168 173 174 177 174 171 169 167 166 159 158 156 156 142
287 286 282 274 268 257 255 249 230 227 242 240 223 199 200 207 207 204 205 208 207 206 199 186 190 201 200 184 175 174 178 176 177 174 170 164 165 159 157 155 152 150 148
292 285 281 273 269 266 258 258 253 245 241 236 228 200 199 209 212 214 215 210 201 200 191 190 192 188 185 198 195 195 177 185 182 170 166 165 164 164 166 164 161 156 162
296 284 280 276 274 268 261 259 255 250 252 248 223 217 208 210 213 218 215 213 206 201 194 195 196 196 186 179 178 194 206 183 171 173 163 163 166 163 163 164 168 166 159
304 299 282 275 270 269 272 265 261 257 253 250 246 225 219 214 214 217 217 212 208 202 200 195 196 193 189 185 184 183 178 176 169 165 164 162 163 165 165 164 162 158 155
296 302 301 295 283 269 266 265 264 262 258 252 243 242 226 220 219 216 216 213 210 207 203 199 197 194 190 190 184 176 170 167 168 166 160 159 159 161 160 159 162 161 161